www.pogodaiklimat.ru

Погода и климат >> Архив погоды >> Норвегия >> Myken


ПОГОДА в Myken

  • Прогноз погоды в Myken
  • Монитор погоды в Myken
  • Климат города

АРХИВ ПОГОДЫ в Myken

Время (UTC), дата Ветер
(напр.,м/с)
 
Видим.   Явления Облачность Т
(С)
Тd
(С)
f
(%)
Тe
(С)
Тes
(С)
Комфортность P
(гПа)
Po
(гПа)
Тmin
(С)
Tmax
(С)
R
(мм)
R24
(мм)
S
(см)
04 19.05 С 9-11
{12}
н/о н/о +6.9 +5.9 93 +1 +1 1010.2 1008.1
05 19.05 С 9-11
{11}
н/о н/о +6.8 +5.6 92 +1 +1 1011.0 1008.9
06 19.05 С 9 15 км {дождь} 10/10 300 м
[Sc]
+6.7 +5.7 93 +1 +1 1011.8 1009.7 +6.6 +8.2
07 19.05 СЗ 9-10
{11}
н/о н/о +6.5 +5.3 92 +1 +1 1012.8 1010.7
08 19.05 С 8-10
{10}
н/о н/о +6.7 +5.5 92 +1 +1 1013.7 1011.6
09 19.05 СЗ 7-8
{10}
20 км 10/10 300 м
[St]
+7.0 +5.3 89 +2 +2 1014.8 1012.7
10 19.05 СЗ 5-7
{8}
н/о н/о +7.2 +5.5 89 +3 +3 1015.7 1013.6
11 19.05 СЗ 5-6
{7}
н/о н/о +7.7 +5.5 86 +4 +4 1016.8 1014.7
12 19.05 СЗ 6-7
{11}
20 км 9/1 300 м
[Cu Sc Ac As]
+7.7 +5.4 85 +3 +5 1017.4 1015.3
13 19.05 СЗ 6-7
{7}
н/о н/о +8.0 +5.6 85 +4 +4 1018.1 1016.0
14 19.05 СЗ 4-5
{7}
н/о н/о +8.2 +5.3 82 +5 +5 1018.8 1016.7
15 19.05 СЗ 3-4
{5}
20 км 9/1 300 м
[Cu Sc Ac As]
+7.7 +5.2 84 +5 +7 1019.5 1017.4
16 19.05 СЗ 5-7
{7}
н/о н/о +8.0 +4.6 79 +4 +4 1019.8 1017.7
17 19.05 СЗ 6-8
{9}
н/о н/о +7.1 +4.3 82 +3 +3 1020.1 1018.0
18 19.05 СЗ 4-6
{9}
20 км 10/10 300 м
[St]
+6.6 +4.8 88 +3 +3 1020.8 1018.7 +6.5 +8.3
19 19.05 С 4-4
{7}
н/о н/о +6.4 +4.9 90 +3 +3 1021.4 1019.3
20 19.05 СЗ 3-5
{5}
н/о н/о +6.5 +3.5 81 +3 +3 1021.7 1019.6
21 19.05 СЗ 4-4
{5}
20 км 10/10 300 м
[St]
+6.4 +4.2 86 +3 +3 1022.3 1020.2
22 19.05 С 2-2
{8}
н/о н/о +5.8 +4.1 89 +3 +3 1022.7 1020.6 0.3
23 19.05 СЗ 2-2
{3}
н/о н/о +6.1 +4.4 89 +4 +4 1023.1 1021.0
00 20.05 С 2-3
{8}
20 км {дождь} 10/10 300 м
[Sc]
+6.0 +4.3 89 +4 +4 1023.4 1021.3
01 20.05 С 4-5
{5}
н/о н/о +6.1 +2.4 77 +2 +2 1023.5 1021.4
02 20.05 С 4-6
{7}
н/о н/о +6.2 +3.4 82 +2 +2 1023.6 1021.5
03 20.05 СВ 2-4
{6}
н/о н/о +6.3 +2.0 74 +4 +4 1023.8 1021.7
04 20.05 В 2-2
{5}
н/о н/о +6.5 +2.2 74 +4 +4 1023.8 1021.7
05 20.05 В 1-1
{2}
н/о н/о +6.7 +2.0 72 +6 +6 1024.0 1021.9
06 20.05 С 1-1
{7}
н/о н/о +7.0 +2.3 72 +6 +6 1024.1 1022.0 +5.6 +7.1
07 20.05 СЗ 2-3
{3}
н/о н/о +7.1 +3.0 75 +5 +5 1024.3 1022.2
08 20.05 С 4-4
{5}
н/о н/о +7.4 +2.1 69 +4 +4 1024.3 1022.2
09 20.05 С 4-5
{5}
30 км 10/10 300 м
[St]
+7.3 +1.4 66 +4 +4 1024.4 1022.3
10 20.05 С 4-5
{5}
н/о н/о +7.7 +1.8 66 +5 +5 1024.4 1022.3
11 20.05 С 3-4
{5}
н/о н/о +8.0 +1.6 64 +6 +6 1024.3 1022.2
12 20.05 С 2-3
{5}
50 км 9/0
[Ac As]
+8.7 +1.6 61 +7 +11 1024.2 1022.1
13 20.05 СВ 3-5
{5}
н/о н/о +8.3 +0.8 59 +6 +6 1024.0 1021.9
14 20.05 С 3-4
{5}
н/о н/о +8.2 +1.8 64 +6 +6 1023.7 1021.6
15 20.05 С 4-5
{5}
>70 км 3/0
[Ac As]
+8.0 +1.6 64 +5 +8 1023.1 1021.0
16 20.05 -6
{6}
н/о н/о +7.5 +2.4 70 1022.7 1020.6
17 20.05 С 6-7
{7}
н/о н/о +7.3 +2.4 71 +3 +3 1022.5 1020.4
18 20.05 С 6-7
{7}
>70 км 1/0
[Ac As]
+7.0 +2.7 74 +3 +3 1022.1 1020.0 +6.9 +9.3
19 20.05 С 6-8
{8}
н/о н/о +6.8 +2.3 73 +2 +2 1021.7 1019.6
20 20.05 С 6-7
{8}
н/о н/о +6.6 +2.5 75 +2 +2 1021.2 1019.1
21 20.05 С 8-9
{9}
>70 км 3/0
[Ac As Ci fib]
+6.3 +2.4 76 +1 +1 1021.1 1019.0
22 20.05 С 6-8
{9}
н/о н/о +6.3 +2.9 79 +2 +2 1020.9 1018.8
23 20.05 С 7-8
{8}
н/о н/о +6.2 +3.0 80 +1 +1 1020.6 1018.5
00 21.05 С 6-7
{9}
>70 км 1/0
[Ac As]
+6.1 +2.9 80 +1 +1 1020.3 1018.2
01 21.05 С 7-8
{8}
н/о н/о +6.1 +2.6 78 +1 +1 1019.9 1017.8
02 21.05 С 7-8
{8}
н/о н/о +6.4 +3.0 79 +1 +1 1019.5 1017.4
03 21.05 СВ 7-8
{8}
н/о н/о +6.5 +2.8 77 +2 +2 1019.2 1017.1
04 21.05 С 6-7
{8}
н/о н/о +6.5 +2.4 75 +2 +2 1019.0 1016.9
05 21.05 -7
{8}
н/о н/о +6.2 +2.5 77 1018.9 1016.8
06 21.05 С 4 >70 км 9/0
[Ac As]
+6.4 +2.5 76 +3 +4 1019.1 1017.0 +6.0 +7.0
07 21.05 С 5-7
{7}
н/о н/о +6.5 +2.6 76 +2 +2 1018.8 1016.7
08 21.05 С 5-6
{7}
н/о н/о +6.8 +2.7 75 +3 +3 1019.0 1016.9
09 21.05 С 4-6
{6}
>70 км 9/0
[Ac As]
+7.1 +2.6 73 +4 +6 1019.3 1017.2
10 21.05 С 4-5
{6}
н/о н/о +7.3 +2.6 72 +4 +4 1019.4 1017.3
11 21.05 С 4-5
{6}
н/о н/о +6.9 +2.6 74 +3 +3 1019.4 1017.3
12 21.05 С 3-4
{7}
>70 км 10/0
[Ac As]
+7.5 +3.0 73 +5 +7 1019.2 1017.1
13 21.05 СЗ 3-5
{5}
н/о н/о +7.1 +2.6 73 +4 +4 1019.1 1017.0
14 21.05 С 3-5
{5}
н/о н/о +6.9 +2.6 74 +4 +4 1019.1 1017.0
15 21.05 СЗ 4-5
{5}
>70 км 9/0
[Ac As]
+6.9 +2.6 74 +3 +5 1018.7 1016.6
16 21.05 -3
{5}
н/о н/о +6.8 +2.7 75 1018.7 1016.6
17 21.05 С 2-4
{4}
н/о н/о +6.6 +2.7 76 +4 +4 1018.1 1016.0
18 21.05 С 3-3
{5}
30 км 8/0
[Ac As]
+6.4 +2.9 78 +3 +4 1017.9 1015.8 +6.2 +7.5
19 21.05 С 2-4
{5}
н/о н/о +6.2 +2.5 77 +4 +4 1017.8 1015.7
20 21.05 З 2-3
{5}
н/о н/о +6.1 +2.4 77 +4 +4 1017.7 1015.6
21 21.05 С 1-3
{5}
30 км 10/0
[Ac As]
+6.2 +2.7 78 +5 +5 1017.7 1015.6
22 21.05 СЗ 2-3
{4}
н/о н/о +6.2 +2.7 78 +4 +4 1017.7 1015.6
23 21.05 СЗ 2-4
{4}
н/о н/о +6.1 +2.4 77 +4 +4 1017.5 1015.4
00 22.05 З 2-3
{5}
30 км 10/0
[Ac As]
+6.1 +2.6 78 +4 +4 1017.1 1015.0
01 22.05 З 3-5
{5}
н/о н/о +6.1 +2.9 80 +3 +3 1016.8 1014.7
02 22.05 ЮЗ 2-3
{6}
н/о н/о +6.1 +2.8 79 +4 +4 1016.6 1014.5
03 22.05 СЗ 3-5
{5}
н/о н/о +6.1 +2.9 80 +3 +3 1016.6 1014.5
04 22.05 З 2-4
{5}
н/о н/о +6.1 +2.8 79 +4 +4 1016.4 1014.3
05 22.05 З 2-3
{4}
н/о н/о +6.3 +2.8 78 +4 +4 1016.4 1014.3
06 22.05 З 5 30 км 10/0
[Ac As]
+6.3 +2.4 76 +2 +3 1016.4 1014.3 +6.0 +6.5
07 22.05 З 4-5
{6}
н/о н/о +6.2 +2.1 75 +3 +3 1016.5 1014.4
08 22.05 ЮЗ 2-3
{5}
н/о н/о +6.5 +2.2 74 +4 +4 1016.6 1014.5
09 22.05 ЮЗ 3-4
{4}
н/о н/о +6.7 +2.4 74 +4 +4 1016.8 1014.7
10 22.05 З 3-4
{4}
н/о н/о +6.9 +2.8 75 +4 +4 1016.9 1014.8
11 22.05 ЮЗ 4-6
{6}
н/о н/о +6.9 +3.2 77 +3 +3 1016.9 1014.8
12 22.05 З 6-7
{7}
20 км 10/10 300 м
[St]
+7.1 +3.9 80 +3 +3 1016.9 1014.8
13 22.05 З 5-7
{7}
н/о н/о +6.9 +3.7 80 +3 +3 1016.9 1014.8
14 22.05 З 5-7
{7}
н/о н/о +6.8 +4.3 84 +3 +3 1016.8 1014.7
15 22.05 З 6-7
{7}
20 км 10/10 300 м
[St]
+7.3 +4.4 82 +3 +3 1016.7 1014.6
16 22.05 З 6-7
{7}
н/о н/о +7.1 +4.1 81 +3 +3 1016.7 1014.6
17 22.05 З 6-7
{7}
н/о н/о +7.2 +3.8 79 +3 +3 1016.6 1014.5
18 22.05 З 6-7
{7}
20 км {дождь} 10/10 300 м
[Sc]
+7.1 +3.5 78 +3 +3 1016.7 1014.6 +6.2 +7.4
19 22.05 З 5-6
{7}
н/о н/о +7.0 +3.4 78 +3 +3 1016.6 1014.5
20 22.05 З 5-6
{6}
н/о н/о +6.9 +4.1 82 +3 +3 1016.5 1014.4
21 22.05 З 4-5
{6}
20 км 10/10 300 м
[St]
+6.8 +3.8 81 +3 +3 1016.6 1014.5
22 22.05 СЗ 4-5
{5}
н/о н/о +6.7 +4.9 88 +3 +3 1016.6 1014.5
23 22.05 СЗ 3-4
{6}
н/о н/о +6.4 +4.9 90 +3 +3 1016.5 1014.4
00 23.05 З 5-6
{7}
20 км 10/10 300 м
[St]
+6.3 +4.1 86 +2 +2 1016.4 1014.3
01 23.05 СЗ 4-5
{6}
н/о н/о +6.2 +4.9 91 +2 +2 1016.4 1014.3
02 23.05 З 4-5
{6}
н/о н/о +5.7 +4.8 94 +2 +2 1016.5 1014.4
03 23.05 В 1-1
{5}
н/о н/о +5.5 +4.6 94 +4 +4 1016.5 1014.4 0.2
04 23.05 В 1-1
{2}
н/о н/о +5.7 +4.7 93 +4 +4 1016.3 1014.2
05 23.05 ЮЗ 1-2
{2}
н/о н/о +6.3 +4.8 90 +5 +5 1016.3 1014.2
06 23.05 СВ 2 30 км {дождь} 10/10 300 м
[Sc]
+6.2 +4.4 88 +4 +4 1016.4 1014.3 +5.3 +7.2
07 23.05 С 1-2
{3}
н/о н/о +7.1 +3.9 80 +6 +6 1016.6 1014.5
08 23.05 С 1-2
{3}
н/о н/о +6.8 +3.4 79 +6 +6 1016.6 1014.5
09 23.05 СВ 2-2
{3}
40 км 10/10 300 м
[St]
+7.4 +3.1 74 +5 +5 1016.7 1014.6
10 23.05 В 1-2
{3}
н/о н/о +7.6 +2.5 70 +7 +7 1016.7 1014.6
11 23.05 СВ 1-2
{2}
н/о н/о +8.3 +2.8 68 +8 +8 1016.7 1014.6
12 23.05 СВ 1-2
{3}
н/о н/о +8.3 +2.8 68 +8 +8 1016.7 1014.6
13 23.05 З 3-5
{5}
н/о н/о +8.3 +1.9 64 +6 +6 1016.6 1014.5
14 23.05 С 4-5
{5}
н/о н/о +7.7 +3.0 72 +5 +5 1016.1 1014.0
15 23.05 С 4-4
{5}
н/о н/о +7.5 +3.2 74 +4 +4 1015.8 1013.7
16 23.05 СВ 3-3
{4}
н/о н/о +7.7 +2.8 71 +5 +5 1015.6 1013.5
17 23.05 СВ 2-3
{3}
н/о н/о +7.4 +2.7 72 +6 +6 1015.3 1013.2
18 23.05 -3
{5}
н/о н/о +7.3 +2.6 72 1015.0 1012.9 +6.3 +9.4
19 23.05 С 2-3
{3}
н/о н/о +7.2 +2.7 73 +5 +5 1014.9 1012.8
20 23.05 -2
{4}
н/о н/о +7.0 +2.7 74 1014.5 1012.4
21 23.05 С 2-3
{3}
н/о н/о +7.0 +2.5 73 +5 +5 1014.3 1012.2
22 23.05 СВ 2-2
{2}
н/о н/о +7.0 +2.5 73 +5 +5 1014.2 1012.1
23 23.05 С 1-2
{2}
н/о н/о +7.0 +2.1 71 +6 +6 1014.0 1011.9
00 24.05 СЗ 1-2
{4}
н/о н/о +7.0 +2.3 72 +6 +6 1013.7 1011.6
01 24.05 З 2-3
{3}
н/о н/о +7.0 +2.5 73 +5 +5 1013.5 1011.4
02 24.05 ЮЗ 2-4
{4}
н/о н/о +6.6 +3.1 78 +4 +4 1013.4 1011.3
03 24.05 З 2-3
{4}
н/о н/о +6.6 +3.1 78 +4 +4 1013.0 1010.9
04 24.05 З 1-3
{3}
н/о н/о +6.2 +3.9 85 +5 +5 1012.9 1010.8
05 24.05 ЮЗ 3-4
{4}
н/о н/о +5.9 +3.9 87 +3 +3 1013.0 1010.9 0.1
06 24.05 З 2-3
{4}
н/о н/о +6.6 +3.9 83 +4 +4 1013.0 1010.9 +5.8 +7.3
07 24.05 З 4-5
{7}
н/о н/о +6.5 +3.3 80 +3 +3 1013.1 1011.0
08 24.05 З 2-3
{5}
н/о н/о +7.1 +3.4 77 +5 +5 1013.4 1011.3
09 24.05 ЮЗ 4-5
{5}
15 км 10/10 300 м
[St]
+6.1 +3.9 86 +2 +2 1013.7 1011.6
10 24.05 З 2-3
{5}
н/о н/о +6.3 +4.3 87 +4 +4 1013.8 1011.7
11 24.05 Ю 3-4
{4}
н/о н/о +7.5 +4.5 81 +5 +5 1013.8 1011.7
12 24.05 Ю 4-5
{7}
20 км {ливн. осадки} 9/1 300 м
[Cb calv Ac cuf]
+7.8 +4.4 79 +5 +7 1013.8 1011.7
13 24.05 ЮЗ 5-7
{7}
н/о н/о +7.6 +3.5 75 +4 +4 1013.9 1011.8
14 24.05 ЮЗ 4-6
{7}
н/о н/о +7.3 +3.7 78 +4 +4 1014.0 1011.9
15 24.05 ЮЗ 4-6
{6}
20 км 10/1 300 м
[Cu Sc Ac As]
+7.5 +3.9 78 +4 +5 1013.9 1011.8
16 24.05 ЮЗ 5-7
{8}
н/о н/о +7.5 +4.6 82 +4 +4 1013.8 1011.7
17 24.05 З 4-6
{7}
н/о н/о +6.9 +5.1 88 +3 +3 1013.7 1011.6
18 24.05 ЮЗ 5-7
{8}
20 км 10/10 300 м
[St]
+7.6 +4.0 78 +4 +4 1013.5 1011.4 +5.8 +8.4
19 24.05 ЮЗ 5-6
{7}
н/о н/о +7.3 +4.4 82 +3 +3 1013.4 1011.3
20 24.05 ЮЗ 5-6
{6}
н/о н/о +7.2 +4.7 84 +3 +3 1013.2 1011.1
21 24.05 Ю 5-6
{7}
20 км в посл. час дождь 10/10 300 м
[Sc]
+7.2 +4.9 85 +3 +3 1012.7 1010.6
22 24.05 Ю 5-7
{7}
н/о н/о +7.3 +4.8 84 +3 +3 1012.5 1010.4
23 24.05 Ю 5-7
{7}
н/о н/о +7.4 +4.9 84 +3 +3 1012.3 1010.2
00 25.05 ЮЗ 5-8
{8}
н/о н/о +7.4 +4.7 83 +3 +3 1012.0 1009.9
01 25.05 ЮЗ 6-8
{9}
н/о н/о +7.4 +4.2 80 +3 +3 1011.7 1009.6
02 25.05 ЮЗ 6-7
{8}
н/о н/о +7.4 +4.2 80 +3 +3 1011.3 1009.2
03 25.05 ЮЗ 5-7
{7}
н/о н/о +7.5 +4.6 82 +4 +4 1010.9 1008.8
04 25.05 ЮЗ 4-6
{7}
н/о н/о +7.5 +5.2 85 +4 +4 1010.8 1008.7
05 25.05 ЮЗ 5-8
{8}
н/о н/о +7.9 +5.0 82 +4 +4 1010.8 1008.7
06 25.05 ЮЗ 5
{9}
20 км {дождь} 9/1 300 м
[Cu Sc Ac As]
+8.4 +5.0 79 +5 +6 1010.5 1008.4 +7.1
07 25.05 ЮЗ 5-6
{7}
н/о н/о +8.2 +5.5 83 +5 +5 1010.6 1008.5
08 25.05 ЮЗ 6-8
{8}
н/о н/о +8.0 +5.8 86 +4 +4 1010.8 1008.7
09 25.05 ЮЗ 5-6
{7}
20 км 10/10 300 м
[St]
+8.0 +6.1 88 +4 +4 1010.9 1008.8
10 25.05 ЮЗ 5-6
{6}
н/о н/о +8.1 +6.6 90 +4 +4 1011.3 1009.2
11 25.05 З 5-7
{7}
н/о н/о +7.9 +7.0 94 +4 +4 1011.5 1009.4 0.4
12 25.05 -9
{11}
10 км слабый дождь 10/3 300 м
[Frnb As op]
+6.1 +5.1 93 1011.9 1009.8 0.4
13 25.05 -10
{10}
н/о н/о +6.4 +3.9 84 1012.4 1010.3 0.1
14 25.05 С 7-9
{10}
н/о н/о +6.5 +3.3 80 +2 +2 1013.2 1011.1
15 25.05 С 8-9
{10}
20 км {дождь} 10/10 300 м
[Sc]
+7.0 +1.3 67 +2 +2 1013.7 1011.6
16 25.05 С 8-9
{9}
н/о н/о +7.3 +1.4 66 +3 +3 1014.0 1011.9
17 25.05 С 7-9
{10}
н/о н/о +7.3 +1.0 64 +3 +3 1014.6 1012.5
18 25.05 СЗ 7-9
{10}
20 км {дождь} 6/1 300 м
[Cu med, cong Ac cuf]
+6.9 +2.6 74 +2 +2 1015.1 1013.0 +5.8 +8.6
19 25.05 С 6-7
{10}
н/о н/о +7.0 +2.7 74 +3 +3 1015.6 1013.5
20 25.05 С 7-9
{9}
н/о н/о +6.8 +1.9 71 +2 +2 1015.8 1013.7
21 25.05 С 7-8
{9}
40 км 5/1 300 м
[Cb calv Ac cuf]
+6.6 +2.5 75 +2 +2 1016.2 1014.1
22 25.05 СЗ 8-9
{10}
н/о н/о +6.6 +3.1 78 +1 +1 1016.8 1014.7
23 25.05 СЗ 8-9
{10}
н/о н/о +6.5 +2.8 77 +1 +1 1017.5 1015.4
00 26.05 С 8-10
{11}
20 км 8/3 300 м
[Cu med, cong Ac As]
+5.7 +2.7 81 0 0 1017.7 1015.6 0.1
01 26.05 СЗ 7-8
{9}
н/о н/о +6.1 +2.6 78 +1 +1 1017.9 1015.8 0.2
02 26.05 СЗ 7-8
{9}
н/о н/о +6.2 +2.7 78 +1 +1 1018.2 1016.1
03 26.05 С 6-8
{8}
н/о н/о +6.2 +2.5 77 +2 +2 1018.8 1016.7
04 26.05 СЗ 6-7
{9}
н/о н/о +5.6 +1.5 75 +1 +1 1019.0 1016.9

 

Местоположение метеостанции Myken (Норвегия): широта 66.77 долгота 12.48 высота над уровнем моря 17 м.

В архиве по умолчанию представлена погода в Myken за последнюю неделю. Архивные данные за месяц целиком и за предыдущие месяцы, начиная с января 2011 года, Вы можете получить, выбрав интересующий диапазон дат из раскрывающегося списка и нажав кнопку "Ввод!".

Внимание! Время в таблицах - всемирное. Для получения местного времени необходимо прибавить поправку, которая в Myken равна 1 ч.

Смотрите также архив погоды в соседних городах и на ближайших метеорологических станциях:

Погода в Solvaer III (Норвегия) (45 км)
Погода в Reipa (Норвегия) (53 км)
Погода в Rost Flyplass (Норвегия) (85 км)
Погода в Skamdal (Норвегия) (86 км)
Погода в Seljelia (Норвегия) (86 км)
Погода в Sandnessjoen Lufthavn (Норвегия) (90 км)
Погода в Mo i Rana Lufthavn (Норвегия) (93 км)
Погода в Helligvaer II (Норвегия) (93 км)
Погода в Vaeroy Heliport (Норвегия) (98 км)
Погода в Bodo VI (Норвегия) (99 км)

Пояснения к столбцам:

Ветер - указаны скорость ветра в м/с - средняя за 10 мин, порывы в срок и между сроками (в фигурных скобках) и направление, откуда дует ветер: С - северный, СВ - северо-восточный, В - восточный, ЮВ - юго-восточный, Ю - южный, ЮЗ - юго-западный, З - западный, СЗ - северо-западный.
Видимость - горизонтальная дальность видимости в метрах или километрах. При видимости от 1 до 10 км при отсутствии осадков обычно наблюдается дымка, при ухудшении видимости до 1 км и менее - туман. В сухую погоду видимость может ухудшаться дымом, пылью или мглою.
Явления - указаны атмосферные явления, наблюдавшиеся в срок или в последний час перед сроком; фигурными скобками обозначены явления, наблюдавшиеся между сроками (за 1-3 часа до срока); квадратными скобками обозначены град или гололедные отложения с указанием их диаметра в мм.
Облачность - указаны через наклонную черту общая и нижняя облачность в баллах и высота нижней границы облаков в метрах; квадратными скобками обозначены формы облаков: Ci - перистые, Cs - перисто-слоистые, Cc - перисто-кучевые, Ac - высококучевые, As - высокослоистые, Sc - слоисто-кучевые, Ns - слоисто-дождевые, Cu - кучевые, Cb - кучево-дождевые. Подробнее классификацию облаков см. в Атласе облаков (PDF).
T - Температура воздуха - температура, измеренная на высоте 2 м над землей.
Td - Температура точки росы - температура, при понижении до которой содержащийся в воздухе водяной пар достигнет насыщения.
f - Относительная влажность воздуха - влажноcть воздуха, измеренная на высоте 2 м над землей.
Te - Эффективная температура - температура, которую ощущает одетый по сезону человек в тени. Характеристика душности погоды. При расчете учитывается влияние влажности воздуха и скорости ветра на теплоощущения человека.
Tes - Эффективная температура на солнце - температура, которую ощущает человек, с поправкой на солнечный нагрев. Характеристика знойности погоды. Зависит от высоты солнца над горизонтом, облачности и скорости ветра. Ночью, в пасмурную погоду, а также при ветре 12 м/с и более поправка равна нулю.
P - Атмосферное давление - приведенное к уровню моря атмосферное давление.
Po - Атмосферное давление - измеренное на уровне метеостанции атмосферное давление.
Tmin - Минимальная температура - минимум температуры воздуха на высоте 2 м над землей.
Tmax - Максимальная температура - максимум температуры воздуха на высоте 2 м над землей.
R - Количество осадков - Количество выпавших осадков за период времени, мм. При наведении курсора мыши на число - период времени, за который выпало указанное количество осадков.
R24 - Количество осадков - Количество выпавших осадков за 24 часа, мм.
S - Снежный покров - Высота снежного покрова, см. При наведении курсора мыши на число - состояние снежного покрова и степень покрытия местности в баллах.